[[{"header":{"parameterUnit":"m.s-1","parameterCategory":2,"la1":30.2992,"la2":30.254,"lo1":-89.0895,"lo2":-89.0443,"dy":0.0025,"dx":0.0025,"nx":19,"ny":19,"refTime":"2026-05-18T21:00:00:Z","depth":"0","parameterNumber":2,"parameterNumberName":"U-component_of_CURRENTS"},"data":[0,0,0,0.064,0.0641,0.0687,0.0688,0.0748,0.0748,0,0,0,0,0,0,0,0,0,0,0,0.0621,0.0622,0.064,0.0641,0.0687,0.0688,0.0747,0.0748,0,0,0,0,0,0,0,0,0,0,0,0.0621,0.0621,0.0622,0.0641,0.0687,0.0688,0.0747,0.0712,0,0,0,0,0,0,0,0,0,0,0.0667,0.0641,0.0621,0.0622,0.0642,0.0687,0.0688,0.071,0.0714,0.0727,0,0.0733,0,0.0744,0.0752,0.0752,0,0,0,0.0641,0.0638,0.066,0.0622,0.0642,0.0687,0.0666,0.0713,0.0717,0.0732,0.0734,0.0736,0.0745,0.0752,0.0753,0.0792,0.0792,0,0,0.0638,0.0622,0.0656,0.0662,0.0653,0.0665,0.0668,0.0715,0.0714,0.0734,0.0738,0.0746,0.0753,0.0753,0.0792,0.0792,0,0,0,0.0631,0.062,0.064,0.066,0.0669,0.0666,0.067,0.0712,0.0721,0.0739,0.0746,0.0753,0.0754,0.0792,0.0792,0.0787,0,0,0,0.063,0.0616,0.0639,0.0628,0.0668,0.0689,0.0665,0.0718,0.0724,0.0746,0.0753,0.0755,0.0792,0.0792,0.0787,0.0825,0,0,0,0.0619,0.0614,0.0622,0.0628,0.0649,0.0689,0.07,0.0719,0.0729,0.0752,0.0755,0.0792,0.0792,0.0788,0.0824,0.0968,0,0,0,0.0598,0.0587,0.0621,0.0612,0.0649,0.0668,0.07,0.0715,0.0731,0.0754,0.0792,0.0792,0.0788,0.0823,0.0965,0.117,0.1201,0,0,0.0568,0.0582,0.0578,0.061,0.0623,0.0662,0.0679,0.0716,0.0737,0.0777,0.0778,0.0787,0.0824,0.0967,0.1167,0.1198,0,0,0,0.0558,0.0565,0.0571,0.0591,0.0615,0.0663,0.0692,0.0716,0.0756,0.0748,0.0788,0.0812,0.0903,0.102,0.1043,0.1188,0.0792,0.0792,0.0792,0.0521,0.0542,0.0552,0.059,0.0607,0.0662,0.0702,0.0745,0.0746,0.0763,0.0806,0.0911,0.1029,0.1051,0.1194,0.0783,0.0783,0.0783,0.0783,0.052,0.0546,0.057,0.0593,0.0641,0.067,0.0736,0.0755,0.0862,0.0809,0.0898,0.1004,0.1078,0.1221,0.0783,0.0783,0.0783,0.0783,0.0783,0.0541,0.0556,0.0574,0.0621,0.0667,0.0711,0.083,0.086,0.0901,0.0956,0.1186,0.1189,0.1328,0.1034,0.1035,0.1036,0.1036,0.1037,0.1037,0.0567,0.0582,0.062,0.0662,0.07,0.0788,0.0911,0.1022,0.1207,0.1246,0.1249,0.1398,0.0991,0.0996,0.1049,0.1047,0.1046,0.1044,0.1044,0.0602,0.0614,0.0668,0.0708,0.0799,0.0913,0.1045,0.1367,0.1506,0.1651,0.1783,0.1431,0.1488,0.147,0.1489,0.1667,0.1667,0.1667,0.1667,0.0627,0.0636,0.0709,0.0771,0.0868,0.0968,0.1263,0.1556,0.1928,0.212,0.2115,0.2076,0.2044,0.2128,0.2096,0.2125,0.246,0.2461,0.2462,0.0649,0.0672,0.0722,0.0779,0.088,0.1035,0.1302,0.1621,0.2209,0.2498,0.2278,0.2245,0.2177,0.2116,0.2229,0.2172,0.2211,0,0]},{"header":{"parameterUnit":"m.s-1","parameterCategory":2,"la1":30.2992,"la2":30.254,"lo1":-89.0895,"lo2":-89.0443,"dy":0.0025,"dx":0.0025,"nx":19,"ny":19,"refTime":"2026-05-18T21:00:00:Z","depth":"0","parameterNumber":3,"parameterNumberName":"V-component_of_CURRENTS"},"data":[0,0,0,-0.0258,-0.0259,-0.0303,-0.0303,-0.0354,-0.0355,0,0,0,0,0,0,0,0,0,0,0,-0.0241,-0.0241,-0.0258,-0.0259,-0.0303,-0.0303,-0.0354,-0.0355,0,0,0,0,0,0,0,0,0,0,0,-0.0241,-0.0241,-0.0242,-0.0259,-0.0303,-0.0303,-0.0354,-0.0322,0,0,0,0,0,0,0,0,0,0,-0.0281,-0.0265,-0.0241,-0.0242,-0.0259,-0.0303,-0.0303,-0.0321,-0.0324,-0.0332,0,-0.0338,0,-0.0347,-0.0358,-0.0358,0,0,0,-0.0261,-0.0262,-0.0274,-0.0242,-0.026,-0.0303,-0.0284,-0.0323,-0.0327,-0.0336,-0.0338,-0.0341,-0.0348,-0.0358,-0.0358,-0.0386,-0.0386,0,0,-0.0258,-0.025,-0.0272,-0.0277,-0.027,-0.0282,-0.0285,-0.0325,-0.0328,-0.0339,-0.0342,-0.0349,-0.0358,-0.0359,-0.0386,-0.0386,0,0,0,-0.025,-0.0248,-0.026,-0.0274,-0.0283,-0.0283,-0.0287,-0.0327,-0.0331,-0.0342,-0.035,-0.0359,-0.0359,-0.0386,-0.0386,-0.0347,0,0,0,-0.0249,-0.0243,-0.0258,-0.0254,-0.0282,-0.0306,-0.0287,-0.0328,-0.0333,-0.0349,-0.0359,-0.036,-0.0386,-0.0386,-0.0349,-0.0288,0,0,0,-0.0239,-0.0242,-0.0247,-0.0253,-0.0272,-0.0306,-0.0312,-0.0329,-0.0337,-0.0358,-0.036,-0.0386,-0.0386,-0.035,-0.0292,-0.0176,0,0,0,-0.023,-0.0231,-0.0247,-0.0251,-0.0271,-0.0289,-0.0312,-0.0328,-0.0343,-0.0359,-0.0386,-0.0386,-0.035,-0.0294,-0.018,0.0014,0.0047,0,0,-0.0224,-0.023,-0.0233,-0.0247,-0.0255,-0.0283,-0.0292,-0.0322,-0.0345,-0.0373,-0.0374,-0.0348,-0.0292,-0.0177,0.0019,0.0052,0,0,0,-0.0226,-0.0226,-0.0231,-0.0241,-0.0259,-0.0263,-0.0303,-0.0318,-0.034,-0.0354,-0.0357,-0.0322,-0.0251,-0.0142,-0.0117,-0.0181,-0.0386,-0.0386,-0.0386,-0.0197,-0.0211,-0.0207,-0.0223,-0.0232,-0.0256,-0.0256,-0.0283,-0.0326,-0.0329,-0.0299,-0.0193,-0.0082,-0.006,-0.0131,-0.0332,-0.0332,-0.0332,-0.0332,-0.0171,-0.0162,-0.0178,-0.0179,-0.0188,-0.0195,-0.0213,-0.0233,-0.0198,-0.0274,-0.0206,-0.0119,-0.0028,-0.0115,-0.033,-0.033,-0.033,-0.0331,-0.0331,-0.0142,-0.0136,-0.0144,-0.0134,-0.0119,-0.0134,-0.0035,-0.0081,-0.0121,-0.0079,0.0096,0.0097,0.0037,-0.0028,-0.0027,-0.0026,-0.0025,-0.0025,-0.0024,-0.0099,-0.0107,-0.008,-0.0077,-0.0046,0.0028,0.0083,0.0159,0.0232,0.0199,0.02,0.0078,-0.0098,-0.0092,-0.0013,-0.0015,-0.0016,-0.0017,-0.0018,-0.0045,-0.0054,-0.0004,0.0028,0.013,0.0327,0.0357,0.059,0.0624,0.0709,0.0449,0.0358,0.039,0.037,0.0389,0.0588,0.0588,0.0588,0.0588,0.0001,-0.0004,0.0091,0.0178,0.0326,0.0473,0.0849,0.0998,0.0912,0.0822,0.0655,0.0578,0.0557,0.059,0.0565,0.0583,0.0827,0.0827,0.0827,0.0056,0.0075,0.0171,0.0246,0.0416,0.0704,0.1102,0.1355,0.1128,0.0817,0.0525,0.0515,0.037,0.0341,0.036,0.033,0.0347,0,0]}],[{"header":{"parameterUnit":"m.s-1","parameterCategory":2,"la1":30.2992,"la2":30.254,"lo1":-89.0895,"lo2":-89.0443,"dy":0.0025,"dx":0.0025,"nx":19,"ny":19,"refTime":"2026-05-18T21:00:00:Z","depth":"2","parameterNumber":2,"parameterNumberName":"U-component_of_CURRENTS"},"data":[0,0,0,0.0708,0.0709,0.0755,0.0756,0.0816,0.0817,0,0,0,0,0,0,0,0,0,0,0,0.069,0.069,0.0708,0.0709,0.0755,0.0756,0.0816,0.0817,0,0,0,0,0,0,0,0,0,0,0,0.069,0.069,0.069,0.071,0.0755,0.0756,0.0816,0.0781,0,0,0,0,0,0,0,0,0,0,0.0736,0.071,0.069,0.069,0.071,0.0755,0.0756,0.0779,0.0783,0.0796,0,0.0803,0,0.0813,0.0821,0.0821,0,0,0,0.0709,0.0706,0.0729,0.069,0.071,0.0755,0.0735,0.0781,0.0786,0.0802,0.0804,0.0806,0.0814,0.0822,0.0822,0.0863,0.0863,0,0,0.0707,0.069,0.0725,0.0731,0.0722,0.0733,0.0736,0.0784,0.0783,0.0804,0.0808,0.0815,0.0822,0.0822,0.0863,0.0863,0,0,0,0.07,0.0688,0.0709,0.0729,0.0738,0.0734,0.0738,0.078,0.079,0.0808,0.0816,0.0822,0.0823,0.0863,0.0863,0.0858,0,0,0,0.0698,0.0684,0.0707,0.0697,0.0737,0.0757,0.0733,0.0787,0.0793,0.0816,0.0822,0.0824,0.0863,0.0863,0.0858,0.0894,0,0,0,0.0688,0.0683,0.069,0.0696,0.0717,0.0757,0.0769,0.0788,0.0797,0.0821,0.0824,0.0863,0.0863,0.0858,0.0893,0.1037,0,0,0,0.0666,0.0656,0.069,0.0682,0.0717,0.0738,0.0769,0.0784,0.0801,0.0823,0.0863,0.0863,0.0858,0.0892,0.1034,0.1253,0.1284,0,0,0.0638,0.0652,0.0648,0.068,0.0694,0.0731,0.0751,0.0786,0.0807,0.0848,0.0849,0.0858,0.0893,0.1036,0.125,0.1282,0,0,0,0.0629,0.0636,0.0643,0.0663,0.0688,0.0735,0.0764,0.0788,0.0827,0.0818,0.0859,0.0882,0.0973,0.1098,0.1122,0.0863,0.0863,0.0863,0.0863,0.0592,0.0613,0.0625,0.0663,0.0681,0.0735,0.0775,0.0818,0.0819,0.0836,0.0876,0.0982,0.1109,0.1131,0.0855,0.0855,0.0855,0.0855,0.0855,0.0592,0.0618,0.0642,0.0666,0.0713,0.0742,0.0809,0.0828,0.0934,0.088,0.0969,0.1082,0.1159,0.0855,0.0855,0.0855,0.0855,0.0855,0.0855,0.0612,0.0626,0.0644,0.0691,0.0737,0.0781,0.09,0.093,0.097,0.1025,0.1264,0.1267,0.1048,0.1103,0.1104,0.1105,0.1106,0.1106,0.1107,0.0635,0.065,0.0687,0.0729,0.0768,0.0857,0.098,0.1092,0.1282,0.1324,0.1326,0.1069,0.106,0.1066,0.1118,0.1116,0.1115,0.1114,0.1113,0.0669,0.0679,0.0734,0.0774,0.0869,0.0999,0.1126,0.1458,0.1592,0.1743,0.1528,0.1514,0.1573,0.1554,0.1573,0.1755,0.1755,0.1755,0.1755,0.0692,0.07,0.0775,0.0841,0.0945,0.1063,0.138,0.1612,0.1787,0.1789,0.1785,0.1707,0.1684,0.1741,0.1718,0.1736,0.196,0.1959,0.1959,0.0714,0.0737,0.0789,0.0851,0.0963,0.1147,0.1447,0.1665,0.1791,0.1945,0.16,0.1812,0.1686,0.1654,0.1729,0.1696,0.1722,0,0]},{"header":{"parameterUnit":"m.s-1","parameterCategory":2,"la1":30.2992,"la2":30.254,"lo1":-89.0895,"lo2":-89.0443,"dy":0.0025,"dx":0.0025,"nx":19,"ny":19,"refTime":"2026-05-18T21:00:00:Z","depth":"2","parameterNumber":3,"parameterNumberName":"V-component_of_CURRENTS"},"data":[0,0,0,-0.0298,-0.0299,-0.0345,-0.0345,-0.04,-0.04,0,0,0,0,0,0,0,0,0,0,0,-0.028,-0.0281,-0.0298,-0.0299,-0.0345,-0.0345,-0.04,-0.04,0,0,0,0,0,0,0,0,0,0,0,-0.028,-0.0281,-0.0281,-0.0299,-0.0345,-0.0345,-0.04,-0.0367,0,0,0,0,0,0,0,0,0,0,-0.0323,-0.0305,-0.0281,-0.0281,-0.03,-0.0345,-0.0345,-0.0365,-0.0369,-0.0377,0,-0.0383,0,-0.0393,-0.0404,-0.0404,0,0,0,-0.0301,-0.0302,-0.0316,-0.0281,-0.03,-0.0345,-0.0325,-0.0367,-0.0371,-0.0382,-0.0384,-0.0386,-0.0394,-0.0404,-0.0404,-0.0431,-0.0431,0,0,-0.0299,-0.0289,-0.0313,-0.0318,-0.031,-0.0323,-0.0326,-0.037,-0.0372,-0.0384,-0.0387,-0.0395,-0.0404,-0.0405,-0.0431,-0.0431,0,0,0,-0.029,-0.0287,-0.03,-0.0316,-0.0324,-0.0325,-0.0328,-0.0371,-0.0375,-0.0388,-0.0395,-0.0405,-0.0405,-0.0431,-0.0431,-0.0389,0,0,0,-0.0289,-0.0282,-0.0298,-0.0293,-0.0324,-0.0349,-0.0328,-0.0372,-0.0377,-0.0395,-0.0405,-0.0406,-0.0431,-0.0431,-0.039,-0.0332,0,0,0,-0.0279,-0.0281,-0.0286,-0.0293,-0.0312,-0.0348,-0.0355,-0.0373,-0.0382,-0.0404,-0.0406,-0.0431,-0.0431,-0.0391,-0.0336,-0.0228,0,0,0,-0.0268,-0.027,-0.0286,-0.029,-0.0312,-0.0329,-0.0355,-0.0372,-0.0388,-0.0405,-0.0431,-0.0431,-0.0391,-0.0338,-0.0232,-0.0132,-0.0108,0,0,-0.0263,-0.0269,-0.0271,-0.0287,-0.0294,-0.0323,-0.0331,-0.0363,-0.0389,-0.0417,-0.0418,-0.0389,-0.0336,-0.0229,-0.0121,-0.0096,0,0,0,-0.0265,-0.0264,-0.027,-0.0279,-0.0298,-0.03,-0.0342,-0.0356,-0.0379,-0.0398,-0.0397,-0.0364,-0.0298,-0.0246,-0.0227,-0.043,-0.043,-0.043,-0.043,-0.0235,-0.0248,-0.0245,-0.026,-0.0269,-0.0292,-0.0292,-0.0319,-0.0363,-0.0365,-0.0337,-0.0234,-0.0183,-0.0167,-0.0367,-0.0367,-0.0367,-0.0367,-0.0367,-0.021,-0.0201,-0.0215,-0.0216,-0.0223,-0.0229,-0.0246,-0.0266,-0.0234,-0.0307,-0.0245,-0.0215,-0.0142,-0.0364,-0.0364,-0.0365,-0.0365,-0.0365,-0.0365,-0.0181,-0.0176,-0.0183,-0.0172,-0.0156,-0.017,-0.0076,-0.012,-0.0158,-0.0118,-0.0014,-0.0014,-0.0156,-0.0071,-0.007,-0.007,-0.0069,-0.0069,-0.0068,-0.0141,-0.0148,-0.0122,-0.0117,-0.0088,-0.0017,0.0036,0.0106,0.0139,0.008,0.0081,-0.0132,-0.0142,-0.0137,-0.0057,-0.0059,-0.0061,-0.0062,-0.0062,-0.0091,-0.0098,-0.0051,-0.002,0.0076,0.024,0.0276,0.0453,0.0483,0.0533,0.0203,0.0192,0.0212,0.0195,0.0209,0.0375,0.0375,0.0375,0.0375,-0.0047,-0.0052,0.0038,0.0118,0.0254,0.0368,0.0611,0.052,0.0431,0.0259,0.0262,0.016,0.0148,0.0155,0.0139,0.0147,0.0297,0.0296,0.0295,0.0004,0.0022,0.0111,0.0181,0.0336,0.0561,0.0724,0.0536,0.0306,0.0275,0.0074,0.0403,0.026,0.0238,0.025,0.0225,0.0238,0,0]}],[{"header":{"parameterUnit":"m.s-1","parameterCategory":2,"la1":30.2992,"la2":30.254,"lo1":-89.0895,"lo2":-89.0443,"dy":0.0025,"dx":0.0025,"nx":19,"ny":19,"refTime":"2026-05-18T21:00:00:Z","depth":"4","parameterNumber":2,"parameterNumberName":"U-component_of_CURRENTS"},"data":[0,0,0,0.0849,0.0852,0.097,0.097,0.107,0.1071,0,0,0,0,0,0,0,0,0,0,0,0.0816,0.0817,0.0849,0.0852,0.097,0.097,0.107,0.1071,0,0,0,0,0,0,0,0,0,0,0,0.0816,0.0817,0.0818,0.0852,0.0969,0.097,0.107,0.0995,0,0,0,0,0,0,0,0,0,0,0.0887,0.0869,0.0817,0.0818,0.0853,0.0969,0.097,0.0992,0.0999,0.1,0,0.1026,0,0.1044,0.1076,0.1076,0,0,0,0.0858,0.0863,0.0886,0.0818,0.0854,0.0969,0.0918,0.0997,0.1005,0.101,0.1028,0.1032,0.1046,0.1076,0.1077,0.1207,0.1207,0,0,0.0851,0.0845,0.088,0.0891,0.0893,0.0914,0.0922,0.1002,0.1019,0.1028,0.1034,0.1048,0.1077,0.1077,0.1206,0.1207,0,0,0,0.0829,0.084,0.0863,0.0887,0.0909,0.0918,0.0926,0.1016,0.1021,0.1035,0.1049,0.1077,0.1078,0.1205,0.1206,0.1187,0,0,0,0.0825,0.0826,0.086,0.0858,0.0908,0.0972,0.0937,0.1016,0.1025,0.1048,0.1077,0.1079,0.1204,0.1206,0.1186,0.1175,0,0,0,0.0809,0.0825,0.0839,0.0857,0.0904,0.0971,0.0983,0.1019,0.1033,0.1076,0.1079,0.1203,0.1205,0.1184,0.1174,0.129,0,0,0,0.0797,0.0821,0.084,0.088,0.0903,0.0971,0.0983,0.1046,0.1086,0.1078,0.1204,0.1206,0.1184,0.1173,0.1288,0.112,0,0,0,0.0812,0.0823,0.0846,0.0865,0.0924,0.0955,0.1036,0.1094,0.1118,0.1172,0.1176,0.1186,0.1174,0.129,0.1243,0,0,0,0,0.0841,0.086,0.088,0.0928,0.0974,0.104,0.1101,0.1134,0.1202,0.1151,0.1234,0.1228,0.1301,0.1197,0.1216,0.1216,0.1216,0.1215,0.1215,0.0833,0.0871,0.0919,0.0979,0.1026,0.1111,0.1162,0.1227,0.1231,0.1276,0.1247,0.1367,0.1256,0.1289,0.1289,0.1289,0.1289,0.1289,0.1289,0.0837,0.0868,0.0938,0.0991,0.1071,0.1131,0.1228,0.1252,0.1343,0.1308,0.1381,0.1224,0.1288,0.1288,0.1289,0.1289,0.1289,0.1289,0.1289,0.0805,0.0834,0.0882,0.0974,0.1056,0.1133,0.1214,0.1278,0.1339,0.1375,0.1348,0.14,0.1367,0.1439,0.1439,0.144,0.144,0.144,0.1441,0.075,0.0811,0.0856,0.0953,0.1007,0.1083,0.1219,0.1273,0.1359,0.1334,0.1397,0.1419,0.1414,0.138,0.1448,0.1447,0.1446,0.1445,0.1445,0.0724,0.0752,0.0812,0.087,0.0993,0.1046,0.1186,0.1269,0.1362,0.1369,0.1351,0.1353,0.1366,0.1364,0.1327,0.1382,0.138,0.1378,0,0.07,0.0716,0.0805,0.0879,0.0951,0.1038,0.1085,0.1166,0.1262,0.1243,0.1371,0.1349,0.135,0.136,0.1355,0.131,0,0,0,0.0694,0.0722,0.0774,0.0857,0.0937,0.1006,0.1097,0.1109,0.124,0.123,0.1332,0.1344,0.1337,0.147,0.1498,0.1492,0.144,0,0]},{"header":{"parameterUnit":"m.s-1","parameterCategory":2,"la1":30.2992,"la2":30.254,"lo1":-89.0895,"lo2":-89.0443,"dy":0.0025,"dx":0.0025,"nx":19,"ny":19,"refTime":"2026-05-18T21:00:00:Z","depth":"4","parameterNumber":3,"parameterNumberName":"V-component_of_CURRENTS"},"data":[0,0,0,-0.0094,-0.0096,-0.0206,-0.0207,-0.0301,-0.0302,0,0,0,0,0,0,0,0,0,0,0,-0.0065,-0.0065,-0.0094,-0.0096,-0.0206,-0.0207,-0.0301,-0.0302,0,0,0,0,0,0,0,0,0,0,0,-0.0064,-0.0065,-0.0066,-0.0096,-0.0206,-0.0207,-0.0301,-0.0234,0,0,0,0,0,0,0,0,0,0,-0.0134,-0.0098,-0.0065,-0.0066,-0.0097,-0.0206,-0.0207,-0.0231,-0.0238,-0.0232,0,-0.0248,0,-0.0265,-0.0306,-0.0306,0,0,0,-0.0113,-0.0093,-0.0127,-0.0066,-0.0097,-0.0206,-0.0161,-0.0235,-0.0243,-0.0241,-0.025,-0.0254,-0.0266,-0.0306,-0.0306,-0.0281,-0.028,0,0,-0.0107,-0.0081,-0.0122,-0.0131,-0.0123,-0.0158,-0.0165,-0.0241,-0.0243,-0.025,-0.0256,-0.0268,-0.0306,-0.0307,-0.0281,-0.028,0,0,0,-0.0078,-0.0077,-0.0111,-0.0127,-0.0144,-0.016,-0.0168,-0.024,-0.0253,-0.0257,-0.0269,-0.0307,-0.0307,-0.0282,-0.0281,-0.0249,0,0,0,-0.0075,-0.0059,-0.0108,-0.0093,-0.0143,-0.0197,-0.0166,-0.0248,-0.0257,-0.0268,-0.0307,-0.0308,-0.0283,-0.0282,-0.0252,-0.0246,0,0,0,-0.006,-0.0057,-0.007,-0.0091,-0.0131,-0.0196,-0.0214,-0.0251,-0.0263,-0.0306,-0.0308,-0.0283,-0.0282,-0.0254,-0.025,-0.0279,0,0,0,-0.003,-0.0037,-0.007,-0.007,-0.013,-0.0139,-0.0214,-0.0248,-0.0281,-0.0307,-0.0283,-0.0281,-0.0255,-0.0252,-0.028,-0.0269,0,0,0,-0.0019,-0.0035,-0.0032,-0.0063,-0.0053,-0.0126,-0.0113,-0.0205,-0.025,-0.026,-0.026,-0.0251,-0.025,-0.0279,-0.0172,0,0,0,0,-0.0014,-0.0018,-0.0015,-0.0023,-0.0037,-0.0064,-0.0132,-0.0152,-0.0205,-0.0259,-0.0226,-0.0226,-0.0247,-0.0241,-0.0273,-0.0273,-0.0274,-0.0274,-0.0274,-0.0003,0.0001,0.0009,0.0005,0.0005,-0.0022,-0.0048,-0.009,-0.0135,-0.0147,-0.0182,-0.0156,-0.0143,-0.0156,-0.0156,-0.0156,-0.0156,-0.0155,-0.0155,0.0006,0.0001,0.0013,0.0008,0.0004,-0.0001,-0.0002,-0.004,-0.0081,-0.0106,-0.0128,-0.0182,-0.0152,-0.0152,-0.0153,-0.0153,-0.0154,-0.0154,-0.0154,-0.0003,-0.0005,-0.0019,-0.0013,-0.0019,-0.0019,-0.0017,-0.003,-0.0073,-0.0087,-0.0135,-0.0148,-0.0176,-0.0127,-0.0127,-0.0127,-0.0127,-0.0127,-0.0127,-0.0023,-0.0022,-0.0031,-0.0031,-0.0039,-0.0043,-0.0041,-0.0069,-0.0102,-0.0101,-0.0108,-0.0147,-0.0148,-0.0175,-0.0128,-0.0128,-0.0128,-0.0128,-0.0127,-0.0037,-0.0042,-0.0035,-0.0044,-0.0046,-0.0038,-0.0038,-0.0079,-0.0114,-0.0144,-0.0115,-0.0115,-0.014,-0.0142,-0.017,-0.012,-0.012,-0.012,0,-0.0054,-0.0049,-0.0055,-0.005,-0.0047,-0.0036,-0.0049,-0.0088,-0.0126,-0.0103,-0.0151,-0.0117,-0.0117,-0.0146,-0.0147,-0.0179,0,0,0,-0.0063,-0.006,-0.0075,-0.007,-0.0061,-0.0056,-0.0061,-0.0074,-0.0083,-0.0134,-0.0113,-0.0115,-0.0157,-0.0131,-0.0172,-0.0173,-0.0219,0,0]}]]